This demonstration page uses our WeatherBlox Daily Observations layout. Learn more.

Hourly Observations for February 15, 2019

Temp ( °F °C ) Dew Point ( °F °C ) Humidity (%) Winds ( mph kmh ) Pressure ( in mb ) Visibility ( mi km ) Precip ( " mm )
12:15 am 00:15 Cloudy 18 -7.9 8 -13.5 64 64 NNE 15 24 30.16 1021 10 16.0934 0 0
12:35 am 00:35 Cloudy 17 -8.2 8 -13.6 65 65 NNE 17 28 30.15 1021 10 16.0934 0 0
12:55 am 00:55 Partly Cloudy 17 -8.5 8 -13.5 68 68 NE 15 24 30.16 1021 10 16.0934 0 0
1:15 am 01:15 Partly Cloudy 16 -8.7 8 -13.5 69 69 NE 15 24 30.17 1022 10 16.0934 0 0
1:35 am 01:35 Mostly Cloudy 16 -9 7 -14 67 67 NNE 10 17 30.18 1022 10 16.0934 0 0
1:55 am 01:55 Partly Cloudy 15 -9.3 6 -14.4 67 67 NE 13 20 30.16 1021 10 16.0934 0 0
2:15 am 02:15 Partly Cloudy 15 -9.5 7 -14 70 70 ENE 10 17 30.18 1022 10 16.0934 0 0
2:35 am 02:35 Mostly Cloudy 15 -9.5 7 -13.8 71 71 ENE 9 15 30.17 1022 10 16.0934 0 0
2:55 am 02:55 Cloudy 14 -9.9 7 -14.1 72 72 NE 10 17 30.17 1022 10 16.0934 0 0
3:15 am 03:15 Cloudy 14 -10.1 6 -14.6 70 70 NE 13 20 30.17 1022 10 16.0934 0 0
3:35 am 03:35 Cloudy 13 -10.3 5 -15.2 68 68 NE 9 15 30.18 1022 10 16.0934 0 0
3:55 am 03:55 Cloudy 13 -10.5 5 -15 70 70 ENE 9 15 30.17 1022 10 16.0934 0 0
4:15 am 04:15 Cloudy 13 -10.6 5 -15.2 69 69 ENE 13 20 30.15 1021 10 16.0934 0 0
4:35 am 04:35 Cloudy 13 -10.8 4 -15.5 69 69 NE 14 22 30.15 1021 10 16.0934 0 0
4:55 am 04:55 Cloudy 12 -11 3 -16 67 67 ENE 10 17 30.15 1021 10 16.0934 0 0
5:15 am 05:15 Cloudy 12 -11.2 4 -15.8 69 69 NE 10 17 30.16 1021 10 16.0934 0 0
5:35 am 05:35 Cloudy with Haze 11 -11.5 6 -14.7 77 77 NE 9 15 30.17 1022 5 8.0467 0 0
5:55 am 05:55 Cloudy with Light Snow 11 -11.9 6 -14.3 83 83 ENE 13 20 30.17 1022 4 6.43736 0 0
6:15 am 06:15 Cloudy with Light Snow 10 -12 6 -14.2 84 84 NE 13 20 30.16 1021 2 3.21868 0 0
6:35 am 06:35 Cloudy with Light Snow 10 -12.3 7 -14.1 87 87 ENE 9 15 30.19 1022 2 3.21868 0 0
6:55 am 06:55 Cloudy with Light Snow 10 -12.3 7 -13.9 88 88 ENE 8 13 30.19 1022 3 4.82802 0.01 0.254
7:15 am 07:15 Cloudy with Light Snow 10 -12.5 7 -13.9 89 89 ENE 9 15 30.2 1023 1.25 2.011675 0.01 0.254
7:35 am 07:35 Cloudy with Light Snow 9 -12.8 7 -14.1 90 90 NE 10 17 30.2 1023 1 1.60934 0.02 0.508
7:55 am 07:55 Cloudy with Snow 9 -13 6 -14.2 91 91 NE 9 15 30.21 1023 0.75 1.207005 0.04 1.016
8:15 am 08:15 Cloudy with Light Snow 9 -13 6 -14.2 91 91 NE 10 17 30.22 1023 1.25 2.011675 0 0
8:35 am 08:35 Cloudy with Light Snow 9 -12.7 7 -14.1 89 89 NNE 9 15 30.24 1024 1 1.60934 0.01 0.254
8:55 am 08:55 Cloudy with Snow 9 -12.7 7 -14.1 89 89 NNE 8 13 30.26 1025 0.5 0.80467 0.01 0.254
9:15 am 09:15 Cloudy with Light Snow 9 -12.7 7 -14.1 89 89 NNE 8 13 30.26 1025 0.75 1.207005 0 0
9:35 am 09:35 Cloudy with Light Snow 9 -12.6 7 -14 89 89 NNE 6 9 30.26 1025 0.75 1.207005 0 0
9:55 am 09:55 Cloudy with Light Snow 10 -12.5 7 -14 89 89 NE 6 9 30.25 1024 2 3.21868 0 0
10:15 am 10:15 Cloudy 10 -12.4 7 -14 88 88 NE 6 9 30.24 1024 10 16.0934 0 0
10:35 am 10:35 Cloudy 10 -12.2 6 -14.2 85 85 ENE 8 13 30.24 1024 10 16.0934 0 0
10:55 am 10:55 Cloudy 10 -12.2 6 -14.5 83 83 ENE 8 13 30.24 1024 10 16.0934 0 0
11:15 am 11:15 Cloudy 10 -12 6 -14.2 84 84 ENE 7 11 30.24 1024 10 16.0934 0 0
11:35 am 11:35 Cloudy with Light Snow 11 -11.8 6 -14.3 82 82 ENE 8 13 30.23 1024 10 16.0934 0 0
11:55 am 11:55 Cloudy 11 -11.6 6 -14.5 79 79 E 8 13 30.25 1024 10 16.0934 0 0
12:15 pm 12:15 Cloudy 11 -11.5 6 -14.2 81 81 E 8 13 30.25 1024 10 16.0934 0 0
12:35 pm 12:35 Cloudy 12 -11.3 7 -14.1 80 80 E 7 11 30.25 1024 10 16.0934 0 0
12:55 pm 12:55 Cloudy 12 -11.2 7 -14 80 80 ENE 5 7 30.26 1025 10 16.0934 0 0
1:15 pm 13:15 Cloudy 12 -11.2 7 -14.1 79 79 E 9 15 30.23 1024 10 16.0934 0 0
1:35 pm 13:35 Cloudy 12 -11.2 7 -14 80 80 E 10 17 30.22 1023 10 16.0934 0 0
1:55 pm 13:55 Cloudy 12 -11.2 7 -14 80 80 ENE 8 13 30.23 1024 10 16.0934 0 0
2:15 pm 14:15 Cloudy 12 -11.2 7 -13.9 81 81 ENE 6 9 30.23 1024 10 16.0934 0 0
2:35 pm 14:35 Cloudy 12 -11.2 7 -13.8 81 81 ENE 7 11 30.23 1024 10 16.0934 0 0
2:55 pm 14:55 Cloudy with Light Snow 12 -11.2 7 -14 80 80 ENE 7 11 30.22 1023 10 16.0934 0 0
3:15 pm 15:15 Cloudy with Light Snow 12 -11.1 8 -13.6 82 82 ENE 7 11 30.22 1023 7 11.26538 0 0
3:35 pm 15:35 Cloudy 12 -11.1 7 -13.9 80 80 E 7 11 30.23 1024 10 16.0934 0 0
3:55 pm 15:55 Cloudy 12 -11 8 -13.4 83 83 E 6 9 30.21 1023 10 16.0934 0 0
4:15 pm 16:15 Cloudy 12 -11 8 -13.3 83 83 ENE 6 9 30.21 1023 10 16.0934 0 0
4:35 pm 16:35 Cloudy 12 -11 8 -13.5 82 82 ENE 7 11 30.22 1024 10 16.0934 0 0
4:55 pm 16:55 Cloudy 12 -11.2 7 -13.7 82 82 ENE 7 11 30.22 1023 10 16.0934 0 0
5:15 pm 17:15 Cloudy 12 -11 8 -13.2 84 84 E 9 15 30.2 1023 10 16.0934 0 0
5:35 pm 17:35 Cloudy 12 -11 8 -13.3 83 83 E 8 13 30.2 1023 10 16.0934 0 0
6:15 pm 18:15 Cloudy 12 -11.1 8 -13.4 83 83 E 7 11 30.23 1024 10 16.0934 0 0
6:35 pm 18:35 Cloudy 12 -11.1 8 -13.2 85 85 ESE 8 13 30.23 1024 10 16.0934 0 0
6:55 pm 18:55 Cloudy 12 -11.2 8 -13.3 85 85 ESE 8 13 30.23 1024 10 16.0934 0 0
7:15 pm 19:15 Cloudy 12 -11.2 8 -13.2 85 85 ESE 8 13 30.24 1024 10 16.0934 0 0
7:35 pm 19:35 Cloudy with Light Snow 12 -11.2 8 -13.1 86 86 E 7 11 30.25 1024 10 16.0934 0 0
7:55 pm 19:55 Cloudy 12 -11.2 8 -13.1 86 86 ESE 8 13 30.26 1025 10 16.0934 0 0
8:15 pm 20:15 Cloudy 12 -11.2 9 -13 87 87 ESE 8 13 30.25 1024 10 16.0934 0 0
8:35 pm 20:35 Cloudy 11 -11.4 8 -13.1 87 87 ESE 7 11 30.25 1024 10 16.0934 0 0
8:55 pm 20:55 Cloudy with Light Snow 12 -11.3 9 -13 87 87 ESE 6 9 30.26 1025 10 16.0934 0 0
9:15 pm 21:15 Cloudy with Light Snow 12 -11.3 9 -13 87 87 SE 5 7 30.26 1025 5 8.0467 0 0
9:35 pm 21:35 Cloudy with Light Snow 12 -11.3 9 -12.7 90 90 ESE 6 9 30.26 1025 5 8.0467 0 0
9:55 pm 21:55 Cloudy with Light Snow 12 -11.3 10 -12.5 91 91 SE 5 7 30.26 1025 5 8.0467 0 0
10:15 pm 22:15 Cloudy with Light Snow 12 -11.2 10 -12.3 92 92 SE 5 7 30.26 1025 5 8.0467 0 0
10:35 pm 22:35 Cloudy with Light Snow 12 -11.3 10 -12.1 94 94 SE 5 7 30.26 1025 4 6.43736 0 0
10:55 pm 22:55 Cloudy with Light Snow 11 -11.5 10 -12.1 95 95 ESE 6 9 30.25 1024 4 6.43736 0 0
11:15 pm 23:15 Cloudy with Light Snow 11 -11.5 10 -12 96 96 E 6 9 30.24 1024 5 8.0467 0 0
11:35 pm 23:35 Cloudy with Light Snow 11 -11.5 10 -12.1 95 95 ESE 5 7 30.23 1024 7 11.26538 0 0
11:55 pm 23:55 Cloudy with Light Snow 11 -11.5 10 -12.2 95 95 SE 6 9 30.24 1024 4 6.43736 0 0

Powered by AerisWeather